Location: Carrières
(48.9495°N, 2.0407°E)
Time: 20:19:17
(UTC+00:00)

Transit 2A - Pass Details

Date: 25 April 2024
Orbit: 594 x 957 km, 66.7° (Epoch: 18 May)

Event Time Altitude Azimuth Distance (km) Brightness Sun altitude
Rises 03:37:00 0° 153° (SSE) 2,848 8.9 -10.1°
Reaches altitude 10° 03:41:25 10° 110° (ESE) 2,008 8.7 -9.5°
Maximum altitude 03:42:00 10° 102° (ESE) 2,003 8.9 -9.5°
Drops below altitude 10° 03:42:36 10° 95° (E) 2,029 9.1 -9.4°
Sets 03:47:16 0° 53° (NE) 3,042 11.5 -8.7°
